EW9733 Weather Reports


Display with metric or nautical units.
time (UTC)temp
F
wind
direction
speed
MPH
gust
MPH
rain 1hr
in
rain 24hr
in
rain mn
in
humidity
%
barometer
mb
20260903183020 72 46 0.0 2.0 0.00 0.13 0.13 84 1011.9
20260903181520 72 58 0.0 5.0 0.00 0.13 0.13 84 1011.9
20260903180023 73 80 0.0 5.0 0.00 0.13 0.13 83 1012.0
20260903174522 74 67 0.0 4.0 0.00 0.13 0.13 83 1011.9
20260903173017 74 53 1.0 5.0 0.00 0.13 0.13 82 1012.0
20260903171515 75 336 0.0 3.0 0.00 0.13 0.13 83 1011.9
20260903170017 75 73 0.0 3.0 0.00 0.13 0.13 85 1011.7
20260903164514 74 140 0.0 5.0 0.00 0.13 0.13 85 1011.5
20260903163014 74 72 0.0 3.0 0.00 0.13 0.13 89 1011.4
20260903161506 73 49 0.0 6.0 0.00 0.13 0.13 90 1011.6
20260903160002 73 317 0.0 4.0 0.00 0.13 0.13 92 1011.8
20260903154600 73 344 0.0 2.0 0.00 0.13 0.13 93 1012.1
20260903153057 72 284 0.0 2.0 0.00 0.13 0.13 94 1012.1
20260903151553 72 94 0.0 3.0 0.00 0.13 0.13 94 1012.2
20260903150049 71 176 0.0 2.0 0.00 0.13 0.13 94 1012.6
20260903144552 71 162 0.0 2.0 0.00 0.14 0.13 95 1012.5
20260903143047 70 148 0.0 1.0 0.00 0.14 0.13 95 1012.8
20260903141538 69 148 0.0 1.0 0.00 0.14 0.13 94 1013.0
20260903140042 69 148 0.0 0.0 0.00 0.14 0.13 94 1013.3
20260903134537 68 148 0.0 0.0 0.00 0.14 0.13 94 1013.2
20260903133032 68 148 0.0 1.0 0.01 0.14 0.13 94 1013.0
20260903131530 67 144 0.0 1.0 0.02 0.14 0.13 94 1013.2
20260903130029 67 146 0.0 0.0 0.03 0.14 0.13 94 1013.2
20260903124527 66 146 0.0 1.0 0.03 0.14 0.13 94 1013.2
20260903123025 66 152 0.0 1.0 0.03 0.13 0.12 94 1013.5
20260903121530 66 151 0.0 1.0 0.03 0.12 0.11 94 1013.7
20260903120036 66 150 0.0 8.0 0.03 0.11 0.10 94 1013.7
20260903114520 65 134 0.0 5.0 0.03 0.11 0.10 94 1013.7
20260903113021 65 147 1.0 8.0 0.02 0.10 0.09 93 1013.7
20260903111515 65 159 0.0 3.0 0.01 0.09 0.08 93 1013.7
20260903110014 64 170 1.0 4.0 0.02 0.08 0.07 93 1013.9
20260903104513 64 150 0.0 6.0 0.02 0.08 0.07 93 1013.6
20260903103011 64 195 1.0 7.0 0.03 0.08 0.07 93 1013.4
20260903101520 64 161 0.0 7.0 0.03 0.08 0.07 92 1013.4
20260903100020 64 142 0.0 5.0 0.02 0.06 0.05 92 1013.6
20260903094518 64 180 1.0 5.0 0.05 0.06 0.05 92 1013.7
20260903093004 64 162 1.0 5.0 0.04 0.05 0.04 91 1014.0
20260903091504 64 182 2.0 6.0 0.04 0.05 0.04 90 1014.0
20260903090002 64 167 2.0 6.0 0.03 0.04 0.03 90 1014.1
20260903084601 64 171 0.0 6.0 0.00 0.01 0.00 89 1014.5
20260903083057 64 132 0.0 6.0 0.00 0.01 0.00 89 1014.7
20260903081554 64 178 1.0 4.0 0.00 0.01 0.00 89 1014.9
20260903080053 64 170 0.0 6.0 0.00 0.01 0.00 88 1015.1
20260903074551 64 171 1.0 5.0 0.00 0.01 0.00 88 1015.2
20260903073050 64 133 0.0 2.0 0.00 0.01 0.00 87 1015.2
20260903071558 64 117 0.0 2.0 0.00 0.01 0.00 86 1015.6
20260903070045 63 118 0.0 1.0 0.00 0.01 0.00 86 1015.9
20260903064549 63 127 0.0 1.0 0.00 0.01 0.00 86 1016.0
20260903063042 63 128 0.0 4.0 0.00 0.01 0.00 86 1016.1
20260903061540 63 134 0.0 1.0 0.00 0.01 0.00 86 1016.5
20260903060036 63 155 0.0 2.0 0.00 0.01 0.00 87 1017.2
20260903054536 63 118 0.0 1.0 0.00 0.01 0.00 88 1017.3
20260903053036 63 111 0.0 3.0 0.00 0.01 0.00 89 1017.2
20260903051552 63 146 0.0 2.0 0.00 0.01 0.00 89 1017.7
20260903050032 63 128 0.0 1.0 0.00 0.01 0.00 90 1017.6
20260903044539 63 126 0.0 0.0 0.00 0.01 0.00 90 1017.7
20260903043107 63 126 0.0 2.0 0.00 0.01 0.00 90 1017.7
20260903041530 63 123 0.0 3.0 0.00 0.01 0.00 90 1017.6
20260903040026 63 119 0.0 2.0 0.00 0.01 0.00 90 1017.4
20260903034535 63 123 0.0 0.0 0.00 0.01 0.01 89 1017.8
20260903033022 63 123 0.0 0.0 0.00 0.01 0.01 88 1018.1
20260903031521 63 123 0.0 0.0 0.00 0.01 0.01 89 1018.3
20260903030021 63 123 0.0 0.0 0.00 0.01 0.01 89 1018.5
20260903024524 64 123 0.0 1.0 0.00 0.01 0.01 89 1018.3
20260903023020 63 123 0.0 4.0 0.00 0.01 0.01 89 1018.2
20260903021519 63 165 0.0 7.0 0.00 0.01 0.01 90 1018.2
20260903020023 63 163 1.0 4.0 0.00 0.01 0.01 90 1018.2
20260903014521 62 145 0.0 5.0 0.00 0.01 0.01 89 1018.1
20260903013019 62 176 0.0 1.0 0.00 0.01 0.01 87 1018.5
20260903011518 62 177 0.0 0.0 0.00 0.01 0.01 86 1018.7
20260903010017 63 177 0.0 0.0 0.00 0.01 0.01 85 1018.6
20260903004516 63 177 0.0 0.0 0.00 0.01 0.01 85 1018.8
20260903003017 64 177 0.0 0.0 0.00 0.01 0.01 83 1018.8
20260903001517 64 177 0.0 0.0 0.00 0.01 0.01 82 1019.2
20260903000015 65 177 0.0 0.0 0.00 0.01 0.01 81 1019.5
20260902234521 66 177 0.0 0.0 0.00 0.01 0.01 81 1019.4
20260902233013 66 177 0.0 0.0 0.00 0.01 0.01 80 1019.3
20260902231514 67 177 0.0 2.0 0.00 0.01 0.01 78 1019.2
20260902230012 68 184 0.0 2.0 0.00 0.01 0.01 77 1019.5
20260902224512 68 185 0.0 4.0 0.00 0.01 0.01 75 1019.6
20260902223022 69 87 0.0 4.0 0.00 0.01 0.01 74 1019.5
20260902221516 69 126 0.0 2.0 0.00 0.01 0.01 73 1019.7
20260902220011 70 121 0.0 2.0 0.00 0.01 0.01 72 1019.8
20260902214510 70 138 1.0 4.0 0.00 0.01 0.01 71 1019.5
20260902213009 70 147 0.0 6.0 0.00 0.01 0.01 71 1019.2
20260902211508 71 141 0.0 5.0 0.00 0.01 0.01 71 1019.6
20260902210008 71 48 1.0 8.0 0.00 0.01 0.01 70 1019.5
20260902204513 72 42 0.0 3.0 0.00 0.01 0.01 69 1019.8
20260902203008 72 57 1.0 6.0 0.00 0.01 0.01 66 1019.9
20260902201505 73 80 1.0 5.0 0.00 0.01 0.01 63 1019.7
20260902200005 73 66 1.0 8.0 0.00 0.01 0.01 60 1019.9
20260902194508 74 157 1.0 6.0 0.00 0.01 0.01 61 1020.0
20260902193004 74 63 0.0 9.0 0.00 0.01 0.01 58 1020.1
20260902191503 74 112 2.0 6.0 0.00 0.01 0.01 59 1020.1
20260902190002 73 159 3.0 10.0 0.00 0.01 0.01 61 1019.9
20260902184502 74 69 3.0 9.0 0.00 0.02 0.01 63 1019.9